Weather in Utan

Russia / Zabaykalsky Krai     52°34′27″N   116°58′59″E
temp.,
°C
wind,
m/s
gust,
m/s
humid.,
%
clouds,
%
prec.,
mm/h
press.,
hPa
HPBL,
m
11 april, sun
sun1100:00−4nne2549100 0.0 1025252
03:00−4n3547100 0.0 1026293
06:00−5n3544100 0.0 1027301
09:00−4nne452793 0.0 1028678
12:00−1n4424100 0.0 10271801
15:00+1nnw452197 0.0 10252511
18:000n5623100 0.0 10242358
21:00−3nne3739100 0.0 1027218
12 april, mon
mon1200:00−5nne495175 0.0 1029390
03:00−7n593879 0.0 1031666
06:00−9n611380 0.0 1031708
09:00−7n68300 0.0 10311276
12:00−4n572374 0.0 10292140
15:00−1nnw4620100 0.0 10262641
18:00−1n5623100 0.0 10242438
21:00−5ne22365 0.0 102521
13 april, tue
tue1300:00−6n11410 0.0 102512
03:00−7nnw22431 0.0 102517
06:00−8nw11430 0.0 102412
09:00−3nnw49330 0.0 10231352
12:000nw45210 0.0 10201870
15:00+3wnw45185 0.0 10161975
18:00+4wsw351740 0.0 10131908
21:00−1s332954 0.0 101230
14 april, wed
wed1400:00−2sse3333100 0.0 101040
03:00−1wsw354594 0.0 1008164
06:00−3wnw22665 0.0 100821
09:00+2nnw69390 0.0 1009856
12:00+5nnw67244 0.0 10071902
15:00+6nnw771896 0.0 10063021
18:00+5n4518100 0.0 10062484
21:00+1ne3434100 0.0 100860
15 april, thu
thu1500:00−2ne2265100 0.0 100829
03:00−3nne346691 0.0 100889
06:00−4nne347482 0.0 100783
09:000ne3552100 0.0 1007524
12:00+4ne443087 0.0 10052367
15:00+5ne4525100 0.0 10042905
18:00+3nne573522 0.1 10051564
21:00−1nne344619 0.1 100849